When you browse on this site, cookies collect data to enhance your experience and personalize the content and advertising you see.
Visit our Privacy Policy to learn more. By continuing to use the site, you agree to this use of cookies and data.
  • In Belgium
  • List of Countries
  • For 7 days
  • Water Temperature
  • Satellite Maps
  • Weather Map
  • Weather Widgets
  • user-avatar
    Login

    Hourly Weather Brisbane

    Today, 19 February, Tuesday

    Time Temperature Precipitation Wind Pressure Humidity
    00:00 +23°C° 0 mm 1 mps 756 mmHg 82%
    01:00 +23°C° 0 mm 1 mps 756 mmHg 85%
    02:00 +22°C° 0 mm 1 mps 755 mmHg 86%
    03:00 +22°C° 0 mm 1 mps 755 mmHg 88%
    04:00 +22°C° 0 mm 1 mps 755 mmHg 89%
    05:00 +22°C° 0 mm 1 mps 755 mmHg 86%
    06:00 +23°C° 0 mm 1 mps 755 mmHg 82%
    07:00 +24°C° 0 mm 2 mps 755 mmHg 79%
    08:00 +27°C° 0 mm 1 mps 755 mmHg 66%
    09:00 +31°C° 0 mm 1 mps 754 mmHg 53%
    10:00 +34°C° 0 mm 1 mps 754 mmHg 40%
    11:00 +35°C° 0 mm 1 mps 754 mmHg 38%
    12:00 +37°C° 0 mm 2 mps 753 mmHg 36%
    13:00 +37°C° 0 mm 3 mps 752 mmHg 34%
    14:00 +36°C° 0 mm 4 mps 752 mmHg 39%
    15:00 +35°C° 0 mm 4 mps 752 mmHg 44%
    16:00 +34°C° 0 mm 4 mps 751 mmHg 49%
    17:00 +32°C° 0 mm 4 mps 752 mmHg 56%
    18:00 +29°C° 0 mm 3 mps 752 mmHg 63%
    19:00 +27°C° 0 mm 2 mps 753 mmHg 70%
    20:00 +26°C° 0 mm 2 mps 753 mmHg 73%
    21:00 +25°C° 0 mm 1 mps 754 mmHg 77%
    22:00 +25°C° 0 mm 1 mps 754 mmHg 80%
    23:00 +24°C° 0 mm 1 mps 754 mmHg 82%

    Tomorrow, 20 February, Wednesday

    Time Temperature Precipitation Wind Pressure Humidity
    00:00 +24°C° 0 mm 1 mps 754 mmHg 84%
    01:00 +24°C° 0 mm 2 mps 753 mmHg 85%
    02:00 +24°C° 0 mm 2 mps 753 mmHg 86%
    03:00 +24°C° 0 mm 2 mps 753 mmHg 87%
    04:00 +24°C° 0 mm 2 mps 753 mmHg 88%
    05:00 +24°C° 0 mm 3 mps 753 mmHg 85%
    06:00 +25°C° 0 mm 3 mps 754 mmHg 82%
    07:00 +26°C° 0 mm 4 mps 754 mmHg 79%
    08:00 +28°C° 0 mm 4 mps 754 mmHg 69%
    09:00 +30°C° 0 mm 4 mps 754 mmHg 59%
    10:00 +34°C° 0 mm 4 mps 754 mmHg 48%
    11:00 +34°C° 0 mm 4 mps 754 mmHg 47%
    12:00 +35°C° 0 mm 5 mps 753 mmHg 46%
    13:00 +36°C° 0 mm 5 mps 753 mmHg 45%
    14:00 +36°C° 0 mm 5 mps 752 mmHg 45%
    15:00 +35°C° 0 mm 5 mps 752 mmHg 46%
    16:00 +35°C° 0 mm 5 mps 752 mmHg 46%
    17:00 +33°C° 0 mm 5 mps 752 mmHg 54%
    18:00 +30°C° 0 mm 5 mps 752 mmHg 62%
    19:00 +28°C° 0 mm 4 mps 753 mmHg 70%
    20:00 +28°C° 0 mm 4 mps 753 mmHg 75%
    21:00 +27°C° 0 mm 4 mps 754 mmHg 79%
    22:00 +26°C° 0 mm 4 mps 754 mmHg 83%
    23:00 +26°C° 0 mm 4 mps 754 mmHg 84%

    Day after tomorrow, 21 February, Thursday

    Time Temperature Precipitation Wind Pressure Humidity
    00:00 +26°C° 0 mm 4 mps 753 mmHg 85%
    01:00 +26°C° 0 mm 4 mps 753 mmHg 86%
    02:00 +26°C° 0 mm 4 mps 753 mmHg 86%
    03:00 +26°C° 0 mm 4 mps 753 mmHg 86%
    04:00 +26°C° 0 mm 4 mps 752 mmHg 85%
    05:00 +26°C° 0 mm 5 mps 753 mmHg 82%
    06:00 +27°C° 0 mm 5 mps 753 mmHg 79%
    07:00 +27°C° 0 mm 5 mps 754 mmHg 76%
    08:00 +28°C° 0 mm 5 mps 754 mmHg 71%
    09:00 +29°C° 0 mm 6 mps 754 mmHg 66%
    10:00 +30°C° 0 mm 6 mps 754 mmHg 61%
    11:00 +33°C° 0 mm 6 mps 753 mmHg 56%
    12:00 +34°C° 0 mm 6 mps 753 mmHg 50%
    13:00 +36°C° 0 mm 7 mps 752 mmHg 45%
    14:00 +36°C° 0 mm 7 mps 751 mmHg 45%
    15:00 +36°C° 0 mm 7 mps 751 mmHg 45%
    16:00 +35°C° 0 mm 8 mps 751 mmHg 45%
    17:00 +34°C° 0 mm 7 mps 751 mmHg 50%
    18:00 +32°C° 0 mm 7 mps 752 mmHg 56%
    19:00 +30°C° 0 mm 6 mps 752 mmHg 61%
    20:00 +29°C° 0 mm 7 mps 752 mmHg 64%
    21:00 +28°C° 0 mm 7 mps 753 mmHg 66%
    22:00 +28°C° 0 mm 7 mps 753 mmHg 68%
    23:00 +28°C° 0 mm 7 mps 752 mmHg 68%

    22 February, Friday

    Time Temperature Precipitation Wind Pressure Humidity
    00:00 +28°C° 0 mm 7 mps 752 mmHg 68%
    01:00 +27°C° 0 mm 8 mps 752 mmHg 68%
    02:00 +27°C° 0 mm 8 mps 751 mmHg 68%
    03:00 +27°C° 0 mm 8 mps 751 mmHg 68%
    04:00 +27°C° 0 mm 8 mps 751 mmHg 67%
    05:00 +27°C° 0 mm 8 mps 751 mmHg 67%
    06:00 +27°C° 0 mm 9 mps 752 mmHg 66%
    07:00 +27°C° 0 mm 9 mps 752 mmHg 65%
    08:00 +28°C° 0 mm 9 mps 752 mmHg 61%
    09:00 +29°C° 0 mm 9 mps 753 mmHg 57%
    10:00 +31°C° 0 mm 10 mps 753 mmHg 53%
    11:00 +31°C° 0 mm 9 mps 752 mmHg 50%
    12:00 +32°C° 0 mm 9 mps 752 mmHg 48%
    13:00 +32°C° 0 mm 9 mps 751 mmHg 46%
    14:00 +32°C° 0 mm 9 mps 751 mmHg 46%
    15:00 +32°C° 0 mm 9 mps 751 mmHg 47%
    16:00 +31°C° 0 mm 8 mps 751 mmHg 47%
    17:00 +29°C° 0 mm 8 mps 752 mmHg 49%
    18:00 +29°C° 0 mm 7 mps 752 mmHg 52%
    19:00 +28°C° 0 mm 7 mps 753 mmHg 54%
    20:00 +27°C° 0 mm 7 mps 753 mmHg 55%
    21:00 +27°C° 0 mm 7 mps 754 mmHg 57%
    22:00 +26°C° 0 mm 7 mps 754 mmHg 59%
    23:00 +26°C° 0 mm 7 mps 754 mmHg 59%

    23 February, Saturday

    Time Temperature Precipitation Wind Pressure Humidity
    00:00 +24°C° 0 mm 6 mps 754 mmHg 60%
    01:00 +24°C° 0 mm 6 mps 753 mmHg 61%
    02:00 +24°C° 0 mm 6 mps 753 mmHg 61%
    03:00 +24°C° 0 mm 6 mps 753 mmHg 61%
    04:00 +23°C° 0 mm 6 mps 753 mmHg 61%
    05:00 +24°C° 0 mm 6 mps 753 mmHg 60%
    06:00 +24°C° 0 mm 6 mps 754 mmHg 58%
    07:00 +26°C° 0 mm 6 mps 754 mmHg 57%
    08:00 +27°C° 0 mm 6 mps 755 mmHg 52%
    09:00 +29°C° 0 mm 6 mps 755 mmHg 47%
    10:00 +32°C° 0 mm 6 mps 755 mmHg 42%
    11:00 +33°C° 0 mm 6 mps 755 mmHg 39%
    12:00 +34°C° 0 mm 6 mps 755 mmHg 37%
    13:00 +35°C° 0 mm 6 mps 755 mmHg 34%
    14:00 +34°C° 0 mm 6 mps 755 mmHg 35%
    15:00 +34°C° 0 mm 7 mps 755 mmHg 35%
    16:00 +33°C° 0 mm 7 mps 755 mmHg 36%
    17:00 +32°C° 0 mm 6 mps 756 mmHg 40%
    18:00 +29°C° 0 mm 6 mps 757 mmHg 43%
    19:00 +27°C° 0 mm 6 mps 757 mmHg 47%
    20:00 +26°C° 0 mm 6 mps 758 mmHg 51%
    21:00 +24°C° 0 mm 6 mps 759 mmHg 55%
    22:00 +23°C° 0 mm 6 mps 759 mmHg 59%
    23:00 +23°C° 0 mm 6 mps 759 mmHg 62%

    24 February, Sunday

    Time Temperature Precipitation Wind Pressure Humidity
    00:00 +23°C° 0 mm 6 mps 759 mmHg 65%
    01:00 +22°C° 0 mm 6 mps 759 mmHg 68%
    02:00 +22°C° 0 mm 6 mps 759 mmHg 69%
    03:00 +22°C° 0 mm 6 mps 759 mmHg 70%
    04:00 +22°C° 0 mm 6 mps 759 mmHg 71%
    05:00 +22°C° 0 mm 6 mps 759 mmHg 69%
    06:00 +23°C° 0 mm 6 mps 760 mmHg 66%
    07:00 +23°C° 0 mm 6 mps 760 mmHg 64%
    08:00 +26°C° 0 mm 6 mps 761 mmHg 58%
    09:00 +27°C° 0 mm 6 mps 761 mmHg 53%
    10:00 +29°C° 0 mm 7 mps 761 mmHg 47%
    11:00 +29°C° 0 mm 7 mps 761 mmHg 47%
    12:00 +29°C° 0 mm 6 mps 761 mmHg 48%
    13:00 +29°C° 0 mm 6 mps 760 mmHg 48%
    14:00 +28°C° 0 mm 7 mps 760 mmHg 47%
    15:00 +28°C° 0 mm 7 mps 760 mmHg 47%
    16:00 +28°C° 0 mm 7 mps 760 mmHg 46%
    17:00 +27°C° 0 mm 7 mps 761 mmHg 50%
    18:00 +26°C° 0 mm 6 mps 762 mmHg 53%
    19:00 +24°C° 0 mm 6 mps 762 mmHg 57%
    20:00 +23°C° 0 mm 6 mps 763 mmHg 61%
    21:00 +22°C° 0 mm 6 mps 763 mmHg 64%
    22:00 +22°C° 0 mm 6 mps 763 mmHg 68%
    23:00 +21°C° 0 mm 5 mps 763 mmHg 70%
    Show more